Regional Weather Roundup
Issued by NWS

Home | Current Version | Previous Version | Graphics & Text | Print | Product List | Glossary On
Versions: 1 2 3 4 5 6 7 8 9 10 11 12 13 14 15 16 17 18 19 20 21 22 23 24 25 26 27 28 29 30 31 32 33 34 35 36 37 38 39 40 41 42 43 44 45 46 47 48 49 50
000
ASUS43 KMPX 222101
RWRMN
WEATHER ROUNDUP FOR MINNESOTA
NATIONAL WEATHER SERVICE TWIN CITIES/CHANHASSEN MN
400 PM CDT MON SEP 22 2014


NOTE: "FAIR" INDICATES FEW OR NO CLOUDS BELOW 12,000 FEET WITH NO
SIGNIFICANT WEATHER AND/OR OBSTRUCTIONS TO VISIBILITY. N/A MEANS
CURRENT SKY AND/OR WEATHER CONDITIONS ARE NOT AVAILABLE.

MNZ060>063-068>070-222200-
   Twin Cities Metro

CITY           SKY/WX    TMP DP  RH WIND       PRES   REMARKS
TWIN CITIES    SUNNY     71  49  45 W8        30.19F
ST PAUL        SUNNY     71  50  47 SW8       30.19F
CRYSTAL        SUNNY     71  50  47 SW9       30.18F
BLAINE         SUNNY     73  52  46 W9        30.19F
LAKEVILLE      SUNNY     70  48  46 W5        30.20F
EDEN PRAIRIE   SUNNY     72  50  45 VRB6      30.18F
SOUTH ST PAUL  SUNNY     71  49  45 SW6       30.19F
LAKE ELMO      FAIR      70  52  52 SW8       30.20F
$$
MNZ001>005-007-008-013>017-022>024-027-028-222200-
   Northwest Minnesota

CITY           SKY/WX    TMP DP  RH WIND       PRES   REMARKS
BEMIDJI        SUNNY     72  46  39 SW8       30.11F
HALLOCK        SUNNY     79  45  29 SW8G17    30.02F
ROSEAU         SUNNY     75  50  41 W9        30.06S
WARROAD        SUNNY     73  52  46 SW13      30.05F
THIEF RVR FALL SUNNY     73  48  40 SW12      30.08F
CROOKSTON      SUNNY     75  48  38 SW12      30.07F
FOSSTON        SUNNY     75  52  43 SW10      30.11F
DETROIT LAKES  SUNNY     72  50  46 S8        30.14F
MOORHEAD       SUNNY     75  39  27 S6        30.10F
PARK RAPIDS    SUNNY     72  46  39 SW14      30.13F
MAHNOMEN       FAIR      72  47  41 SW9       30.11F
$$
MNZ006-009>011-018-025>026-222200-
   North Central Minnesota

CITY           SKY/WX    TMP DP  RH WIND       PRES   REMARKS
BAUDETTE       SUNNY     74  47  38 SW10      30.06F
FLAG ISLAND    SUNNY     73  45  35 W13G20    30.02F
INTL FALLS     SUNNY     74  48  39 W12       30.06F
WASKISH        SUNNY     72  52  49 SW9       30.09F
BIG FORK       SUNNY     73  46  38 W8        30.10F
LONGVILLE      SUNNY     73  48  40 SW3       30.13S
GRAND RAPIDS   SUNNY     70  48  46 W7        30.13S
CRANE LAKE     SUNNY     72  46  40 W7        30.08F
ORR            SUNNY     73  45  35 W9        30.06F
COOK           SUNNY     72  46  40 W9G16     30.09F
WALKER         FAIR      72  45  37 SW8       30.12F
$$
MNZ012-019>021-037-222200-
   Northeast Minnesota

CITY           SKY/WX    TMP DP  RH WIND       PRES   REMARKS
DULUTH         MOSUNNY   71  49  45 W15       30.11F
ELY            SUNNY     70  48  46 W13G18    30.08S
HIBBING        SUNNY     72  46  39 W8G17     30.11F
EVELETH        SUNNY     72  48  43 SW12G18   30.11F
DULUTH HARBOR  SUNNY     73  52  46 SW14      30.11F
TWO HARBORS    SUNNY     72  50  46 SW9G18    30.08S
SILVER BAY     SUNNY     72  54  53 SW3       30.06F
GRAND MARAIS     N/A     58  52  80 W6        30.05F
G MARAIS ARPRT SUNNY     68  45  42 W8G17     30.08S
$$
MNZ029>031-032-039>041-046>048-054>057-064-222200-
   West Central Minnesota

CITY           SKY/WX    TMP DP  RH WIND       PRES   REMARKS
FERGUS FALLS   SUNNY     75  39  27 SW7       30.12F
WHEATON        SUNNY     73  45  35 S8        30.13F
MORRIS         SUNNY     75  48  38 S5        30.14F
ALEXANDRIA     SUNNY     71  48  43 SW7       30.17F
ELBOW LAKE     FAIR      72  50  45 S9        30.14S
WADENA         SUNNY     72  48  43 SW6       30.14F
GLENWOOD       SUNNY     72  48  43 SW8       30.17F
APPLETON       SUNNY     77  45  31 S9        30.14F
BENSON         SUNNY     73  48  40 S7        30.15F
ORTONVILLE     SUNNY     75  45  33 S6        30.13F
MADISON        SUNNY     77  45  31 S7        30.14F
WILLMAR        FAIR      73  45  35 S5        30.18F
$$
MNZ033>034-036-042>043-049>051-058-059-222200-
   Central Minnesota

CITY           SKY/WX    TMP DP  RH WIND       PRES   REMARKS
ST CLOUD       SUNNY     74  48  39 SW8       30.17F
SAUK CENTRE    FAIR      71  48  44 SW3       30.17F
PAYNESVILLE    SUNNY     68  47  47 S6        30.18F
AITKIN         SUNNY     73  52  46 SW7       30.14S
PINE RIVER     SUNNY     72  50  46 SW8       30.17S
BRAINERD       SUNNY     70  48  45 SW9G18    30.15F
STAPLES        SUNNY     72  46  40 SW7       30.15F
LONG PRAIRIE   FAIR      70  46  43 SW6       30.17F
LITTLE FALLS   SUNNY     70  45  40 SW6       30.16F
LITCHFIELD     SUNNY     72  50  46 CALM      30.18F
BUFFALO        SUNNY     70  49  46 SW6       30.20F
MAPLE LAKE     SUNNY     71  53  51 S6        30.19F
$$
MNZ037-044-045-052-053-222200-
   East Central Minnesota

CITY           SKY/WX    TMP DP  RH WIND       PRES   REMARKS
PRINCETON      SUNNY     73  50  43 W7        30.18F
MORA           SUNNY     70  50  49 SW9       30.18F
CAMBRIDGE      SUNNY     73  54  49 S9        30.16F
RUSH CITY      SUNNY     71  51  49 SW9       30.17F
MOOSE LAKE     SUNNY     70  46  43 SW9       30.13S
HINCKLEY       FAIR      70  52  52 SW12G20   30.16S
CLOQUET        SUNNY     72  46  40 W13       30.13S
MCGREGOR       SUNNY     70  50  49 W6        30.15S
$$
MNZ071>073-080-081-089-090-097-098-222200-
   Southwest Minnesota

CITY           SKY/WX    TMP DP  RH WIND       PRES   REMARKS
MONTEVIDEO     SUNNY     79  46  31 SW5       30.16F
GRANITE FALLS  SUNNY     75  45  34 S5        30.17F
CANBY          SUNNY     74  46  35 S7        30.16F
MARSHALL       SUNNY     73  45  35 SW14      30.16F
REDWOOD FALLS  SUNNY     75  47  36 SW10      30.17F
OLIVIA         SUNNY     73  48  40 SE3       30.17F
PIPESTONE      PTSUNNY   70  45  40 SW9       30.19F
WINDOM         SUNNY     73  45  35 S7        30.19F
WORTHINGTON    MOSUNNY   72  46  40 S10G17    30.20F
JACKSON        SUNNY     72  45  37 SW9       30.21F
TRACY          SUNNY     74  47  38 S8        30.18F
SLAYTON        MOSUNNY   71  43  36 CALM      30.20F
$$
MNZ065>067-074>077-082>085-091>093-222200-
   South Central Minnesota

CITY           SKY/WX    TMP DP  RH WIND       PRES   REMARKS
MANKATO        SUNNY     72  46  40 W7        30.20F
NEW ULM        SUNNY     72  52  49 S9        30.18F
ST JAMES       SUNNY     73  46  38 S5        30.20F
FAIRMONT       SUNNY     72  45  37 S5        30.21F
GLENCOE        SUNNY     73  46  38 S5        30.18F
FARIBAULT      SUNNY     73  43  33 W5        30.21F
OWATONNA       SUNNY     72  46  40 W6        30.21F
WASECA         SUNNY     72  45  37 S6        30.23S
ALBERT LEA     SUNNY     70  46  43 SW3       30.22F
$$
MNZ078>079-086>088-094>096-222200-
   Southeast Minnesota

CITY           SKY/WX    TMP DP  RH WIND       PRES   REMARKS
ROCHESTER      SUNNY     69  49  48 W6        30.23F
RED WING       SUNNY     73  48  40 NW5       30.18F
STANTON        SUNNY     71  49  46 SW8       30.19F
DODGE CENTER   SUNNY     70  50  49 CALM      30.22F
WINONA         SUNNY     70  50  49 NW3       30.21F
AUSTIN         SUNNY     70  52  52 W8        30.22F
PRESTON        SUNNY     68  52  57 NW6       30.23F
$$
ABBREVIATIONS USED IN REMARKS
   TC - TEMPERATURES IN CELSIUS
  WCI - WIND CHILL INDEX
   HX - HEAT INDEX
  VSB - VISIBILITY
$$



USA.gov is the U.S. government's official web portal to all federal, state and local government web resources and services.